User: anonymous   Login
Location: Unspecified
(0.0000°N, 0.0000°E)
Time: 20:39:01
(UTC+00:00)
Language:

WGS 5 (USA 243) - Orbit

View from above orbital plane
View from above orbital plane
View from above satellite
View from above satellite

Ground track
Ground track

The orbit data is extracted from the following two-line orbital elements,

1 39168U 13024A   18040.87038198 0.00000000  00000-0  00000-0 0    07
2 39168   0.0211  40.6531 0004821  95.2083 264.7917  1.00270000    00
Epoch (UTC): 09 February 2018 20:53:21
Eccentricity: 0.0004821
inclination: 0.0211°
perigee height: 35766 km
apogee height: 35807 km
right ascension of ascending node: 40.6531°
argument of perigee: 95.2083°
revolutions per day: 1.00270000
mean anomaly at epoch: 264.7917°
orbit number at epoch: 0

The dashed part of the orbit path shows where the satellite is in the earth's shadow,  

DLR